Weather Roundup
Issued by NWS

Home | Current Version | Previous Version | Graphics & Text | Print | Product List | Glossary Off
Versions: 1 2 3 4 5 6 7 8 9 10 11 12 13 14 15 16 17 18 19 20 21 22 23 24 25 26 27 28 29 30 31 32 33 34 35 36 37 38 39 40 41 42 43 44 45 46 47 48 49 50

795
NZUS93 KARX 250159
HRRWXR

CURRENT HOURLY OBSERVATIONS ACROSS
MUCH OF THE UPPER MISSISSIPPI VALLEY
NATIONAL WEATHER SERVICE LA CROSSE WI
900 PM CDT SAT SEP 24 2016


...SOUTHEAST MINNESOTA...


CITY           SKY/WX    TMP DP  RH WIND       PRES   REMARKS
ROCHESTER      CLOUDY    67  64  90 SE15      30.04F
ROCHESTER/MAYO   N/A     66  67 100 E12G17    30.05S
WINONA         CLOUDY    68  64  88 SE13      30.07F
AUSTIN         CLOUDY    66  63  88 SE13G18   30.01S
ALBERT LEA     CLOUDY    70  66  88 SE14      29.99F
DODGE CENTER   CLOUDY    66  63  88 SE16G22   30.03S
PRESTON        CLOUDY    66  62  89 SE9G16    30.07S
OWATONNA       CLOUDY    68  63  83 SE13G22   29.99F
FARIBAULT      CLOUDY    68  64  88 E12G17    30.00S
$$

...ELSEWHERE IN MINNESOTA...


CITY           SKY/WX    TMP DP  RH WIND       PRES   REMARKS
MINNEAPOLIS    CLOUDY    68  62  81 SE15      29.99F
INTNL FALLS    CLOUDY    63  58  83 SE14      29.99S
DULUTH         CLOUDY    62  59  90 E15       30.05F
RED WING       CLOUDY    68  63  83 SE13G20   30.03S
REDWOOD FALLS  RAIN      68  66  93 SE5       29.92S
MANKATO        LGT RAIN  70  66  87 SE13      29.95F
WORTHINGTON    CLOUDY    69  67  93 SE7       29.95S
FAIRMONT       LGT RAIN  71  67  87 S10       29.95R
$$

...SOUTHWEST WISCONSIN...


CITY           SKY/WX    TMP DP  RH WIND       PRES   REMARKS
LA CROSSE      CLOUDY    69  63  81 E7        30.08F
PRAIRIE DU CHI CLEAR     66  64  91 CALM      30.07R
BOSCOBEL       CLEAR     65  63  93 NE6       30.09S
LONE ROCK      NOT AVBL
PLATTEVILLE    CLEAR     67  66  96 E9        30.10R
FORT MC COY    CLOUDY    64  61  91 NE5       30.13R
MAUSTON-NEW LI CLEAR     62  60  96 SE3       30.12S
VIROQUA        FAIR      63  62  96 E5        30.11S
WIS DELLS      NOT AVBL
$$

...ELSEWHERE IN WISCONSIN...


CITY           SKY/WX    TMP DP  RH WIND       PRES   REMARKS
MILWAUKEE      PTCLDY    66  60  81 E7        30.16R
MADISON        MOCLDY    64  61  90 E8        30.14S
GREEN BAY      CLOUDY    61  56  83 E6        30.20R
EAU CLAIRE     NOT AVBL
BLACK RVR FLS  CLOUDY    64  62  93 NE3       30.13R
MEDFORD        CLOUDY    61  57  86 SE7       30.15R
WAUSAU         CLOUDY    62  52  69 SE10      30.16R
WIS RAPIDS     LGT RAIN  63  59  87 SE8       30.17R
MARSHFIELD     PTCLDY    62  56  80 E6        30.16R
RICE LAKE      NOT AVBL
$$

...NORTHEAST IOWA...


CITY           SKY/WX    TMP DP  RH WIND       PRES   REMARKS
WATERLOO       PTCLDY    70  66  87 E12       30.00R
DUBUQUE        CLEAR     68  65  90 E13       30.08S
DECORAH        MOCLDY    66  66 100 E10       30.06F
MASON CITY     CLOUDY    73  68  84 SE10      30.01R
CHARLES CITY   CLOUDY    68  68 100 E12       30.03S
OELWEIN        PTCLDY    68  66  94 E9        30.05S FOG
$$

...ELSEWHERE IN IOWA...


CITY           SKY/WX    TMP DP  RH WIND       PRES   REMARKS
DES MOINES     TSTM      72  66  81 NW20G29   30.02R
IOWA CITY      CLEAR     74  68  81 E9        30.02F
FORT DODGE     CLOUDY    66  63  88 SE8       29.99R
MARSHALLTOWN   CLOUDY    74  70  87 E12       29.99R
CEDAR RAPIDS   CLEAR     70  69  97 E10       30.01F
$$

...NORTHERN ILLINOIS...


CITY           SKY/WX    TMP DP  RH WIND       PRES   REMARKS
CHICAGO-OHARE  CLEAR     68  63  84 NE5       30.13R
CHICAGO-MIDWAY CLEAR     72  64  76 NE8       30.12R
MOLINE         CLEAR     73  67  81 E9        30.05R
ROCKFORD       CLEAR     67  62  84 E8        30.13R
PEORIA         MOCLDY    78  68  71 E9        30.06R
$$

NOTE: "FAIR" INDICATES FEW OR NO CLOUDS BELOW 12,000 FEET WITH NO
SIGNIFICANT WEATHER AND/OR OBSTRUCTIONS TO VISIBILITY. WIND
SPEEDS ARE IN MILES-PER-HOUR.




USA.gov is the U.S. government's official web portal to all federal, state and local government web resources and services.